EW0415 Weather Reports


Display with metric or nautical units.
time (UTC)temp
F
wind
direction
speed
MPH
gust
MPH
rain 1hr
in
rain 24hr
in
rain mn
in
humidity
%
barometer
mb
20260904224018 59 284 5.0 12.0 0.00 0.11 0.00 74 1013.5
20260904223518 59 293 4.0 12.0 0.00 0.11 0.00 75 1013.4
20260904223036 59 285 4.0 12.0 0.00 0.11 0.00 75 1013.4
20260904222522 58 298 5.0 12.0 0.00 0.11 0.00 76 1013.1
20260904222019 58 332 4.0 11.0 0.00 0.11 0.00 76 1013.2
20260904221537 58 300 5.0 11.0 0.00 0.11 0.00 76 1013.2
20260904221017 57 333 4.0 12.0 0.00 0.11 0.00 76 1013.1
20260904220518 57 360 5.0 12.0 0.00 0.11 0.00 76 1013.1
20260904220037 57 360 4.0 10.0 0.00 0.11 0.00 76 1013.1
20260904215516 57 360 5.0 10.0 0.00 0.11 0.00 77 1013.0
20260904215017 57 360 3.0 10.0 0.00 0.11 0.00 77 1013.1
20260904214536 57 360 3.0 10.0 0.00 0.11 0.00 77 1013.1
20260904214015 57 360 3.0 10.0 0.00 0.11 0.00 77 1013.0
20260904213518 57 360 4.0 10.0 0.00 0.11 0.00 77 1012.9
20260904213033 57 360 3.0 10.0 0.00 0.11 0.00 76 1012.9
20260904212516 57 287 4.0 12.0 0.00 0.11 0.00 76 1013.0
20260904212015 57 292 3.0 12.0 0.00 0.11 0.00 76 1013.0
20260904211535 57 313 3.0 13.0 0.00 0.11 0.00 76 1012.9
20260904211022 57 360 4.0 13.0 0.00 0.11 0.00 76 1012.9
20260904210518 57 360 3.0 15.0 0.00 0.11 0.00 76 1012.9
20260904210043 57 360 3.0 15.0 0.00 0.11 0.00 76 1012.8
20260904205527 57 360 5.0 13.0 0.00 0.11 0.00 76 1012.7
20260904205018 57 360 4.0 13.0 0.00 0.11 0.00 76 1012.7
20260904204535 57 249 2.0 9.0 0.00 0.11 0.00 76 1012.5
20260904204022 58 360 4.0 9.0 0.00 0.11 0.00 76 1012.4
20260904203518 58 360 3.0 9.0 0.00 0.11 0.00 77 1012.3
20260904203034 58 271 3.0 12.0 0.00 0.11 0.00 77 1012.4
20260904202519 58 275 3.0 12.0 0.00 0.11 0.00 78 1012.2
20260904202015 59 291 4.0 11.0 0.00 0.11 0.00 78 1012.2
20260904201535 59 249 3.0 14.0 0.00 0.11 0.00 79 1012.0
20260904201015 59 264 5.0 14.0 0.00 0.11 0.00 79 1011.9
20260904200520 59 258 4.0 14.0 0.00 0.11 0.00 79 1011.8
20260904200038 59 306 5.0 14.0 0.00 0.11 0.00 79 1011.8
20260904195524 59 286 4.0 12.0 0.00 0.11 0.00 80 1012.0
20260904195019 59 288 4.0 11.0 0.00 0.11 0.00 80 1011.8
20260904194536 59 288 3.0 15.0 0.00 0.11 0.00 80 1011.8
20260904194019 59 278 4.0 15.0 0.00 0.11 0.00 80 1011.6
20260904193519 59 292 5.0 12.0 0.00 0.11 0.00 80 1011.5
20260904193036 59 267 3.0 10.0 0.00 0.11 0.00 80 1011.4
20260904192516 59 294 3.0 10.0 0.00 0.11 0.00 80 1011.4
20260904192018 59 285 3.0 9.0 0.00 0.11 0.00 80 1011.3
20260904191535 59 306 3.0 8.0 0.00 0.11 0.00 80 1011.3
20260904191018 59 315 2.0 6.0 0.00 0.11 0.00 80 1011.2
20260904190516 59 318 2.0 5.0 0.00 0.11 0.00 80 1011.2
20260904190035 60 0 1.0 6.0 0.00 0.11 0.00 80 1011.0
20260904185516 60 344 1.0 7.0 0.00 0.11 0.00 80 1010.9
20260904185019 60 360 2.0 7.0 0.00 0.11 0.00 80 1010.8
20260904184533 60 310 2.0 8.0 0.00 0.11 0.00 79 1010.8
20260904184019 60 318 1.0 8.0 0.00 0.11 0.00 79 1010.8
20260904183516 60 318 1.0 8.0 0.00 0.11 0.00 79 1010.8
20260904183034 60 0 2.0 10.0 0.00 0.11 0.00 79 1010.8
20260904182524 60 329 1.0 10.0 0.00 0.11 0.00 79 1010.7
20260904182025 60 313 2.0 9.0 0.00 0.11 0.00 79 1010.6
20260904181534 60 305 3.0 9.0 0.00 0.11 0.00 79 1010.6
20260904181018 60 329 2.0 5.0 0.00 0.11 0.00 79 1010.4
20260904180520 60 332 1.0 4.0 0.00 0.11 0.00 79 1010.6
20260904180035 60 333 1.0 4.0 0.00 0.11 0.00 79 1010.5
20260904175520 60 0 0.0 5.0 0.00 0.11 0.00 79 1010.5
20260904175016 60 334 1.0 5.0 0.00 0.11 0.00 79 1010.4
20260904174534 60 0 0.0 3.0 0.00 0.11 0.00 79 1010.6
20260904174018 60 0 0.0 3.0 0.00 0.11 0.00 79 1010.5
20260904173516 60 360 0.0 3.0 0.00 0.11 0.00 79 1010.5
20260904173035 60 0 0.0 3.0 0.00 0.11 0.00 78 1010.4
20260904172519 60 341 0.0 3.0 0.00 0.11 0.00 78 1010.2
20260904172019 60 0 0.0 4.0 0.00 0.11 0.00 78 1010.3
20260904171542 60 340 0.0 4.0 0.00 0.11 0.00 78 1010.3
20260904171019 60 341 1.0 4.0 0.00 0.11 0.00 78 1010.5
20260904170518 61 0 0.0 4.0 0.00 0.11 0.00 78 1010.4
20260904170033 61 0 0.0 4.0 0.00 0.11 0.00 78 1010.4
20260904165518 61 0 0.0 3.0 0.00 0.11 0.00 78 1010.4
20260904165016 61 344 0.0 6.0 0.00 0.11 0.00 77 1010.5
20260904164533 61 344 2.0 6.0 0.00 0.11 0.00 77 1010.6
20260904164017 61 344 1.0 6.0 0.00 0.11 0.00 77 1010.6
20260904163516 61 344 2.0 6.0 0.00 0.11 0.00 77 1010.6
20260904163035 61 343 2.0 6.0 0.00 0.11 0.00 77 1010.7
20260904162517 61 341 1.0 5.0 0.00 0.11 0.00 76 1010.7
20260904162019 61 340 1.0 4.0 0.00 0.11 0.00 76 1010.6
20260904161536 61 340 1.0 4.0 0.00 0.11 0.00 76 1010.6
20260904161018 61 340 1.0 4.0 0.00 0.11 0.00 76 1010.7
20260904160516 61 0 0.0 4.0 0.00 0.11 0.00 76 1010.7
20260904160034 61 340 1.0 4.0 0.00 0.11 0.00 75 1010.8
20260904155519 61 0 1.0 4.0 0.00 0.11 0.00 75 1010.6
20260904155019 61 0 0.0 0.0 0.00 0.11 0.00 75 1010.5
20260904154534 61 0 0.0 3.0 0.00 0.11 0.00 75 1010.4
20260904154018 61 0 0.0 3.0 0.00 0.11 0.00 75 1010.2
20260904153517 62 339 1.0 3.0 0.00 0.11 0.00 75 1010.3
20260904153037 62 0 0.0 2.0 0.00 0.11 0.00 75 1010.2
20260904152518 62 0 0.0 1.0 0.00 0.11 0.00 75 1010.2
20260904152017 62 0 0.0 1.0 0.00 0.11 0.00 75 1010.7
20260904151534 62 0 0.0 3.0 0.00 0.11 0.00 75 1010.4
20260904151019 62 0 0.0 3.0 0.00 0.11 0.00 75 1010.7
20260904150519 62 0 0.0 4.0 0.00 0.11 0.00 75 1010.5
20260904150038 62 0 0.0 4.0 0.00 0.11 0.00 75 1010.4
20260904145517 62 340 1.0 4.0 0.00 0.11 0.00 75 1010.4
20260904145018 62 340 1.0 3.0 0.00 0.11 0.00 75 1010.2
20260904144533 62 0 0.0 5.0 0.00 0.11 0.00 74 1010.4
20260904144017 62 342 1.0 8.0 0.00 0.11 0.00 74 1010.2
20260904143856 62 344 2.0 8.0 0.00 0.11 0.00 74 1009.9
20260904134536 62 323 1.0 3.0 0.00 0.11 0.11 74 1010.2
20260904134015 62 323 1.0 3.0 0.00 0.11 0.11 74 1010.3
20260904133521 62 0 0.0 3.0 0.00 0.11 0.11 74 1010.4
20260904133032 62 0 1.0 5.0 0.00 0.11 0.11 74 1010.4
20260904132519 62 0 0.0 8.0 0.00 0.11 0.11 74 1010.0
20260904132022 62 355 2.0 8.0 0.00 0.11 0.11 74 1010.0
20260904131544 62 348 1.0 5.0 0.00 0.11 0.11 74 1009.9
20260904131017 63 346 2.0 5.0 0.00 0.11 0.11 74 1009.8
20260904130518 63 348 0.0 5.0 0.00 0.11 0.11 74 1010.0
20260904130039 63 355 1.0 8.0 0.00 0.11 0.11 74 1010.0
20260904125519 63 360 2.0 8.0 0.00 0.11 0.11 74 1009.7
20260904125020 63 360 1.0 6.0 0.00 0.11 0.11 74 1009.8
20260904124532 63 355 2.0 6.0 0.00 0.11 0.11 74 1009.8
20260904124015 63 355 1.0 6.0 0.00 0.11 0.11 74 1009.9
20260904123517 63 355 2.0 7.0 0.00 0.11 0.11 74 1010.0
20260904123034 63 0 1.0 7.0 0.00 0.11 0.11 74 1010.0
20260904122519 63 18 1.0 8.0 0.00 0.11 0.11 73 1010.2
20260904122019 64 19 2.0 8.0 0.00 0.11 0.11 73 1010.3
20260904121532 64 360 2.0 9.0 0.00 0.11 0.11 73 1010.4
20260904121016 64 53 2.0 9.0 0.00 0.11 0.11 73 1010.4
20260904120517 64 355 2.0 5.0 0.00 0.11 0.11 73 1010.4
20260904120045 64 350 2.0 6.0 0.00 0.11 0.11 73 1010.4
20260904115521 64 33 2.0 8.0 0.00 0.11 0.11 72 1010.6
20260904115016 64 355 2.0 10.0 0.00 0.11 0.11 72 1010.5
20260904114534 65 17 2.0 10.0 0.00 0.11 0.11 72 1010.6
20260904114016 65 59 3.0 10.0 0.00 0.11 0.11 72 1010.6
20260904113519 65 329 4.0 10.0 0.00 0.11 0.11 72 1010.7
20260904113033 65 80 4.0 10.0 0.00 0.11 0.11 71 1010.9
20260904112519 65 348 2.0 12.0 0.00 0.11 0.11 71 1010.7
20260904112016 65 355 2.0 12.0 0.00 0.11 0.11 71 1010.9
20260904111541 65 355 2.0 9.0 0.00 0.11 0.11 71 1010.9
20260904111015 65 355 2.0 9.0 0.00 0.11 0.11 71 1010.8
20260904110515 65 355 1.0 12.0 0.00 0.11 0.11 71 1010.8
20260904110036 66 351 2.0 12.0 0.00 0.11 0.11 71 1010.6
20260904105519 66 27 3.0 12.0 0.00 0.11 0.11 71 1010.6
20260904105019 66 17 3.0 11.0 0.00 0.11 0.11 71 1010.8
20260904104725 66 327 2.0 11.0 0.00 0.11 0.11 71 1010.7
20260904102019 66 13 3.0 9.0 0.00 0.11 0.11 71 1010.0
20260904101537 66 348 3.0 9.0 0.00 0.11 0.11 71 1010.9
20260904101015 66 355 3.0 9.0 0.00 0.11 0.11 72 1011.1
20260904100518 66 0 2.0 8.0 0.00 0.11 0.11 72 1010.8
20260904100035 66 349 2.0 8.0 0.00 0.11 0.11 73 1010.9
20260904095517 66 329 2.0 8.0 0.00 0.11 0.11 73 1010.9
20260904095020 66 0 3.0 10.0 0.00 0.11 0.11 74 1010.8
20260904094536 66 335 2.0 10.0 0.00 0.11 0.11 74 1010.6
20260904094018 66 20 4.0 10.0 0.00 0.11 0.11 74 1010.3
20260904093516 66 17 4.0 9.0 0.00 0.11 0.11 75 1010.3
20260904093033 66 360 1.0 9.0 0.00 0.11 0.11 75 1010.4
20260904092520 66 13 2.0 8.0 0.00 0.11 0.11 76 1010.2
20260904092018 66 15 2.0 5.0 0.00 0.11 0.11 76 1010.1
20260904091534 66 17 2.0 5.0 0.00 0.11 0.11 76 1010.1
20260904091017 66 22 2.0 5.0 0.00 0.11 0.11 76 1010.3
20260904090515 66 17 1.0 5.0 0.00 0.11 0.11 76 1010.2
20260904090034 66 17 2.0 5.0 0.00 0.11 0.11 76 1010.2
20260904085515 66 0 1.0 6.0 0.00 0.11 0.11 76 1010.2
20260904085016 66 17 2.0 7.0 0.00 0.11 0.11 76 1010.2
20260904084535 66 22 1.0 8.0 0.00 0.11 0.11 76 1010.2
20260904084019 66 0 1.0 8.0 0.00 0.11 0.11 76 1010.4
20260904083631 66 18 1.0 8.0 0.00 0.11 0.11 76 1010.3
20260904065524 69 348 2.0 5.0 0.00 0.10 0.10 72 1010.7
20260904065020 69 346 2.0 6.0 0.00 0.10 0.10 72 1010.6
20260904064537 69 350 1.0 6.0 0.00 0.10 0.10 72 1010.8
20260904064016 69 0 1.0 6.0 0.00 0.10 0.10 71 1010.9
20260904063516 69 13 2.0 9.0 0.00 0.10 0.10 70 1011.0
20260904063032 69 355 2.0 9.0 0.00 0.10 0.10 69 1010.9
20260904062521 70 9 3.0 9.0 0.00 0.10 0.10 69 1011.0
20260904062018 70 26 3.0 10.0 0.00 0.10 0.10 69 1010.9
20260904061539 70 43 2.0 10.0 0.00 0.10 0.10 69 1011.0
20260904061018 70 35 2.0 8.0 0.00 0.10 0.10 69 1011.0
20260904060515 70 322 2.0 8.0 0.00 0.10 0.10 69 1011.1
20260904060035 69 35 1.0 8.0 0.00 0.10 0.10 69 1011.2
20260904055518 69 29 2.0 8.0 0.00 0.10 0.10 69 1011.2
20260904055020 69 360 2.0 8.0 0.00 0.10 0.10 69 1011.3
20260904054535 69 96 3.0 8.0 0.00 0.10 0.10 69 1011.3
20260904054018 69 60 3.0 8.0 0.00 0.10 0.10 71 1011.2
20260904053519 69 10 2.0 8.0 0.00 0.10 0.10 71 1011.4
20260904053036 68 28 3.0 8.0 0.00 0.10 0.10 72 1011.5
20260904052517 67 346 2.0 9.0 0.00 0.10 0.10 72 1011.4
20260904052021 67 80 3.0 9.0 0.00 0.10 0.10 72 1011.6
20260904051533 67 0 1.0 8.0 0.00 0.10 0.10 72 1011.8
20260904051017 67 9 2.0 8.0 0.00 0.10 0.10 73 1011.9
20260904050517 66 355 2.0 6.0 0.00 0.10 0.10 73 1012.0
20260904050036 66 351 3.0 6.0 0.00 0.10 0.10 73 1012.1
20260904045518 66 342 2.0 6.0 0.00 0.10 0.10 73 1012.0
20260904045021 66 346 2.0 6.0 0.00 0.10 0.10 73 1012.1
20260904044532 65 334 2.0 5.0 0.00 0.10 0.10 73 1012.2
20260904044018 65 360 1.0 4.0 0.00 0.10 0.10 72 1012.4
20260904043515 65 0 0.0 6.0 0.00 0.10 0.10 72 1012.4
20260904043033 65 13 2.0 8.0 0.00 0.10 0.10 72 1012.3
20260904042518 65 50 2.0 8.0 0.00 0.10 0.10 72 1012.4
20260904042016 65 340 2.0 8.0 0.00 0.10 0.10 73 1012.2
20260904041536 65 338 2.0 8.0 0.00 0.10 0.10 72 1012.5
20260904041023 65 0 2.0 6.0 0.00 0.10 0.10 73 1012.7
20260904040519 65 344 1.0 5.0 0.00 0.10 0.10 73 1012.7
20260904040031 65 342 2.0 6.0 0.00 0.10 0.10 73 1012.9
20260904035519 65 14 2.0 10.0 0.00 0.10 0.10 73 1013.0
20260904035018 65 19 3.0 10.0 0.00 0.10 0.10 73 1013.2
20260904034535 65 355 2.0 9.0 0.00 0.10 0.10 74 1013.2
20260904034018 65 360 2.0 9.0 0.00 0.10 0.10 75 1013.3
20260904033516 65 26 3.0 9.0 0.00 0.10 0.10 76 1013.7
20260904033127 64 60 4.0 9.0 0.00 0.10 0.10 77 1013.5
20260904032517 64 72 4.0 9.0 0.03 0.10 0.10 78 1013.7
20260904032019 64 96 3.0 10.0 0.04 0.10 0.10 80 1013.8
20260904031534 63 59 3.0 10.0 0.04 0.10 0.10 80 1014.0
20260904031020 63 11 3.0 9.0 0.04 0.10 0.10 82 1014.2
20260904030520 62 351 3.0 9.0 0.04 0.10 0.10 83 1014.1
20260904030033 62 142 3.0 9.0 0.04 0.10 0.10 84 1014.4
20260904025519 61 94 3.0 7.0 0.05 0.10 0.10 84 1014.3
20260904025016 61 120 1.0 9.0 0.07 0.10 0.10 83 1014.4
20260904024534 60 121 3.0 9.0 0.07 0.10 0.10 83 1014.4
20260904024021 60 79 2.0 7.0 0.08 0.10 0.10 82 1014.5
20260904023516 60 78 2.0 7.0 0.09 0.10 0.10 81 1014.8
20260904023039 60 80 2.0 7.0 0.09 0.10 0.10 81 1015.2
20260904022516 60 86 1.0 4.0 0.07 0.07 0.07 80 1015.7
20260904022019 60 86 0.0 3.0 0.05 0.06 0.05 79 1016.7
20260904021539 60 86 1.0 3.0 0.05 0.06 0.05 79 1016.2
20260904021022 60 86 0.0 2.0 0.05 0.06 0.05 78 1016.6
20260904020520 60 0 0.0 3.0 0.05 0.06 0.05 78 1017.3
20260904020032 60 86 0.0 6.0 0.05 0.06 0.05 78 1016.8
20260904015515 60 86 2.0 8.0 0.04 0.05 0.04 77 1016.2
20260904015020 60 49 3.0 9.0 0.03 0.03 0.03 76 1016.1
20260904014545 60 28 3.0 9.0 0.02 0.03 0.02 75 1016.4
20260904014018 60 57 2.0 5.0 0.01 0.02 0.01 75 1016.7
20260904013515 60 0 0.0 5.0 0.00 0.01 0.00 75 1017.1
20260904013039 60 59 1.0 4.0 0.00 0.00 0.00 74 1017.3
20260904012516 60 58 1.0 9.0 0.00 0.00 0.00 74 1017.1
20260904012019 60 62 2.0 9.0 0.00 0.00 0.00 74 1017.2
20260904011534 61 45 3.0 8.0 0.00 0.00 0.00 74 1017.2
20260904011015 61 48 3.0 9.0 0.00 0.00 0.00 73 1017.0
20260904010516 61 42 4.0 10.0 0.00 0.00 0.00 73 1017.1
20260904010034 61 355 3.0 10.0 0.00 0.00 0.00 72 1017.3
20260904005518 62 34 3.0 10.0 0.00 0.00 0.00 71 1017.7
20260904005019 62 19 4.0 11.0 0.00 0.00 0.00 70 1017.6
20260904004537 62 22 3.0 11.0 0.00 0.00 0.00 70 1017.7
20260904004016 62 318 4.0 11.0 0.00 0.00 0.00 69 1018.2
20260904003519 62 65 5.0 10.0 0.00 0.00 0.00 69 1018.2
20260904003034 62 43 3.0 10.0 0.00 0.00 0.00 70 1018.3
20260904002518 63 22 4.0 10.0 0.00 0.00 0.00 70 1018.4
20260904002016 63 51 3.0 10.0 0.00 0.00 0.00 70 1018.3
20260904001533 63 24 4.0 10.0 0.00 0.00 0.00 69 1018.1
20260904001015 63 59 3.0 9.0 0.00 0.00 0.00 70 1018.2
20260904000516 63 355 1.0 8.0 0.00 0.00 0.00 70 1017.8
20260904000036 63 348 2.0 7.0 0.00 0.00 0.00 70 1017.9
20260903235518 63 360 2.0 8.0 0.00 0.00 0.00 71 1017.7
20260903235019 62 355 3.0 8.0 0.00 0.00 0.00 71 1017.6
20260903234535 62 355 2.0 8.0 0.00 0.00 0.00 71 1017.7
20260903234019 62 15 2.0 8.0 0.00 0.00 0.00 72 1017.7
20260903233521 61 20 3.0 10.0 0.00 0.00 0.00 72 1017.7
20260903233033 61 40 3.0 10.0 0.00 0.00 0.00 72 1017.7
20260903232518 61 81 3.0 10.0 0.00 0.00 0.00 73 1017.7
20260903232018 61 46 2.0 8.0 0.00 0.00 0.00 73 1017.8
20260903231534 60 26 2.0 8.0 0.00 0.00 0.00 73 1018.1
20260903231017 60 15 1.0 8.0 0.00 0.00 0.00 74 1018.2
20260903230519 60 78 3.0 8.0 0.00 0.00 0.00 74 1018.1
20260903230035 60 355 3.0 7.0 0.00 0.00 0.00 74 1018.0
20260903225523 59 53 2.0 8.0 0.00 0.00 0.00 74 1018.1
20260903225023 59 37 3.0 8.0 0.00 0.00 0.00 75 1018.0
20260903224534 59 9 2.0 7.0 0.00 0.00 0.00 76 1017.9